Weather History for KCNO - October, 2012

Change the Weather History Date:

Friday, October 26, 2012

  Actual Average Record
Temperature  
Mean Temperature 67 °F -  
Max Temperature 86 °F 75 °F 93 °F (2008)
Min Temperature 48 °F 47 °F 45 °F (2006)
Cooling Degree Days 2    
Growing Degree Days 17 (Base 50)    
Moisture  
Dew Point 28 °F    
Average Humidity 31    
Maximum Humidity 71    
Minimum Humidity 8    
Precipitation  
Precipitation 0.00 in - - ()
Sea Level Pressure  
Sea Level Pressure 29.98 in    
Wind  
Wind Speed 7 mph (ENE)    
Max Wind Speed 22 mph    
Max Gust Speed 32 mph    
Visibility 8 miles    
Events      
Averages and records for this station are not official NWS values.
T = Trace of Precipitation, MM = Missing Value Source: NWS Daily Summary

Daily Weather History Graph

Daily Weather History Graph

Search for Another Location

Airport or City:

Trip Planner

Search our weather history database for the weather conditions in past years. The results will help you decide how hot, cold, wet, or windy it might be!

Date:

Astronomy

Oct. 26, 2012 Rise Set
Actual Time 7:05 AM PDT 6:03 PM PDT
Civil Twilight 6:39 AM PDT 6:28 PM PDT
Nautical Twilight 6:10 AM PDT 6:58 PM PDT
Astronomical Twilight 5:41 AM PDT 7:27 PM PDT
Moon 4:15 PM PDT (10/26) 4:12 AM PDT (10/26)
Length of Visible Light 11h 49m
Length of Day
10h 57m
Waxing Gibbous, 91% of the Moon is Illuminated
Oct 26
Waxing Gibbous
Oct 29
Full
Nov 6
Last Quarter
Nov 13
New
Nov 20
First Quarter

Hourly Weather History & Observations

Time (PDT) Temp. Dew Point Humidity Pressure Visibility Wind Dir Wind Speed Gust Speed Precip Events Conditions
12:53 AM 55.0 °F 43.0 °F 64% 29.98 in 7.0 mi North 4.6 mph - N/A   Clear
1:53 AM 50.0 °F 39.9 °F 68% 29.98 in 7.0 mi Calm Calm - N/A   Clear
2:53 AM 48.9 °F 39.9 °F 71% 29.98 in 4.0 mi Calm Calm - N/A   Haze
3:53 AM 51.1 °F 42.1 °F 71% 29.97 in 7.0 mi Variable 3.5 mph - N/A   Clear
4:53 AM 53.1 °F 39.9 °F 61% 29.97 in 7.0 mi North 4.6 mph - N/A   Clear
6:53 AM 51.1 °F 39.0 °F 63% 30.01 in 10.0 mi North 4.6 mph - N/A   Clear
7:53 AM 59.0 °F 37.0 °F 44% 30.03 in 10.0 mi Variable 3.5 mph - N/A   Clear
8:53 AM 73.0 °F 24.1 °F 16% 30.04 in 10.0 mi East 17.3 mph 25.3 mph N/A   Clear
9:53 AM 75.9 °F 23.0 °F 14% 30.04 in 10.0 mi East 21.9 mph 32.2 mph N/A   Clear
10:53 AM 78.1 °F 21.9 °F 12% 30.04 in 10.0 mi East 19.6 mph 26.5 mph N/A   Clear
11:53 AM 81.0 °F 24.1 °F 12% 30.02 in 10.0 mi East 16.1 mph 21.9 mph N/A   Clear
12:53 PM 82.9 °F 23.0 °F 11% 29.99 in 10.0 mi East 18.4 mph 32.2 mph N/A   Clear
1:53 PM 86.0 °F 21.9 °F 10% 29.95 in 10.0 mi East 10.4 mph 21.9 mph N/A   Clear
3:53 PM 84.9 °F 18.0 °F 8% 29.93 in 10.0 mi East 16.1 mph 21.9 mph N/A   Clear
4:53 PM 82.9 °F 15.1 °F 8% 29.92 in 10.0 mi East 10.4 mph 19.6 mph N/A   Clear
5:53 PM 78.1 °F 16.0 °F 10% 29.92 in 10.0 mi East 10.4 mph - N/A   Partly Cloudy
6:53 PM 72.0 °F 14.0 °F 11% 29.95 in 10.0 mi East 6.9 mph - N/A   Clear
7:53 PM 66.9 °F 18.0 °F 15% 29.95 in 10.0 mi WSW 6.9 mph - N/A   Clear
8:53 PM 64.9 °F 19.9 °F 18% 29.95 in 8.0 mi South 3.5 mph - N/A   Clear
9:53 PM 55.0 °F 30.0 °F 38% 29.96 in 5.0 mi NNW 3.5 mph - N/A   Haze
10:53 PM 57.9 °F 28.9 °F 33% 29.95 in 5.0 mi ENE 3.5 mph - N/A   Haze
11:53 PM 60.1 °F 28.0 °F 30% 29.94 in 7.0 mi ENE 3.5 mph - N/A   Clear